Home > Time Zones > World Clock > Weather > Oman > Muscat > Past weeks

Flag for Oman Weather past 2 weeks in Muscat, Oman

Now
93 °F

Clear.


Feels Like: 101 °F
Forecast: 87 / 97 °F
Wind: 13 mph from East

Location: International Airport

Current Time: Jul 25, 2014 at 3:54:54 AM

Latest Report: Jul 25, 2014 at 2:50 AM


Visibility: 5 mi

Pressure: 29.39 "Hg

Humidity: 49%

Dew point: 72 °F

Location of MuscatLocation

Historic Weather in Muscat — Graph

°F

Muscat temperature yesterday

Maximum temperature yesterday: 102 °F (at 1:50 AM)
Minimum temperature yesterday: 86 °F (at 4:50 AM)
Average temperature yesterday: 94 °F

Past Weeks' High & Low Weather Summary

 TemperatureHumidityPressure
High108 °F (Jul 16, 9:50 AM)100% (Jul 22, 4:50 AM)29.53 "Hg (Jul 22, 4:50 AM)
Low82 °F (Jul 15, 2:50 AM)17% (Jul 25, 1:50 AM)29.33 "Hg (Jul 17, 1:50 AM)
Average91 °F70%29.43 "Hg
* Reported Jul 10 1:50 AM — Jul 25 1:50 AM, Muscat, Weather by CustomWeather, © 2014

Note: Actual official high and low records may vary slightly from our data, if they occured in-between our weather recording intervals... More about our weather records

Advertising

Muscat weather history for previous 24 hours

 ConditionsComfort  
Time TempWeatherWind HumidityBarometerVisibility
1:50 AM
Jul 25
102 °FClear.9 mph17%29.36 "Hg5 mi
12:50 AM95 °FClear.7 mph28%29.39 "Hg5 mi
11:50 PM
Jul 24
95 °FClear.No wind32%29.42 "Hg5 mi
10:50 PM95 °FClear.No wind41%29.45 "Hg5 mi
9:50 PM95 °FClear.No wind44%29.45 "Hg5 mi
8:50 PM95 °FClear.No wind36%29.42 "Hg5 mi
7:50 PM93 °FClear.1 mph49%29.42 "Hg5 mi
6:50 PM93 °FClear.6 mph63%29.42 "Hg5 mi
5:50 PM93 °FClear.8 mph59%29.39 "Hg5 mi
4:50 PM97 °FClear.8 mph53%29.39 "Hg5 mi
3:50 PM97 °FClear.8 mph53%29.39 "Hg5 mi
2:50 PM97 °FClear.8 mph53%29.39 "Hg4 mi
1:50 PM99 °FScattered clouds.10 mph44%29.42 "Hg4 mi
12:50 PM100 °FScattered clouds.8 mph42%29.45 "Hg4 mi
11:50 AM100 °FClear.7 mph42%29.45 "Hg4 mi
10:50 AM97 °FClear.7 mph60%29.47 "Hg4 mi
9:50 AM97 °FClear.3 mph56%29.45 "Hg4 mi
8:50 AM91 °FClear.1 mph75%29.47 "Hg4 mi
7:50 AM88 °FClear.7 mph84%29.47 "Hg4 mi
6:50 AM86 °FClear.7 mph89%29.45 "Hg4 mi
5:50 AM86 °FScattered clouds.9 mph89%29.45 "Hg3 mi
4:50 AM86 °FPassing clouds.9 mph94%29.42 "Hg2 mi
3:50 AM88 °FClear.10 mph89%29.39 "Hg4 mi
Weather by CustomWeather, © 2014

See weather overviewHow to use our weather pages